York, NE

10:39 AM CST on November 21, 2019 (GMT -0600)
York Municipal

Weather History for KJYR - July, 2019

Change the Weather History Date:

Wednesday, July 31, 2019

  Actual Average Record
Temperature  
Mean Temperature 74 °F -  
Max Temperature 82 °F 87 °F 105 °F (1955)
Min Temperature 66 °F 64 °F 51 °F (1960)
Cooling Degree Days 9    
Growing Degree Days 24 (Base 50)    
Moisture  
Dew Point 66 °F    
Average Humidity 79    
Maximum Humidity 94    
Minimum Humidity 58    
Precipitation  
Precipitation 0.00 in - - ()
Sea Level Pressure  
Sea Level Pressure 30.04 in    
Wind  
Wind Speed 13 mph (SE)    
Max Wind Speed 21 mph    
Max Gust Speed 29 mph    
Visibility 10 miles    
Events      
Averages and records for this station are not official NWS values.
T = Trace of Precipitation, MM = Missing Value Source: NWS Daily Summary

Daily Weather History Graph

Daily Weather History Graph

Search for Another Location

Airport or City:

Astronomy

Jul. 31, 2019 Rise Set
Actual Time 6:25 AM CDT 8:47 PM CDT
Civil Twilight 5:54 AM CDT 9:18 PM CDT
Nautical Twilight 5:16 AM CDT 9:56 PM CDT
Astronomical Twilight 4:33 AM CDT 10:38 PM CDT
Moon 5:39 AM CDT (7/31) 8:48 PM CDT (7/31)
Length of Visible Light 15h 23m
Length of Day
14h 22m
Waning Crescent, 0% of the Moon is Illuminated
Jul 31
Waning Crescent
Jul 31
New
Aug 7
First Quarter
Aug 15
Full
Aug 23
Last Quarter

Hourly Weather History & Observations

Time (CDT) Temp. Heat Index Dew Point Humidity Pressure Visibility Wind Dir Wind Speed Gust Speed Precip Events Conditions
12:15 AM 68.0 °F - 64.4 °F 88% 30.05 in 10.0 mi SE 13.8 mph 19.6 mph N/A   Clear
12:35 AM 68.0 °F - 64.4 °F 88% 30.05 in 10.0 mi SE 13.8 mph 21.9 mph N/A   Clear
12:55 AM 68.0 °F - 64.4 °F 88% 30.06 in 10.0 mi SE 12.7 mph 17.3 mph N/A   Clear
1:15 AM 68.0 °F - 64.4 °F 88% 30.06 in 10.0 mi SE 11.5 mph - N/A   Clear
1:35 AM 68.0 °F - 64.4 °F 88% 30.05 in 10.0 mi SE 10.4 mph - N/A   Clear
1:55 AM 68.0 °F - 64.4 °F 88% 30.06 in 10.0 mi ESE 8.1 mph - N/A   Clear
2:15 AM 66.2 °F - 64.4 °F 94% 30.05 in 10.0 mi ESE 10.4 mph - N/A   Clear
2:35 AM 68.0 °F - 64.4 °F 88% 30.05 in 10.0 mi SE 12.7 mph - N/A   Clear
2:55 AM 68.0 °F - 64.4 °F 88% 30.05 in 10.0 mi SE 13.8 mph 17.3 mph N/A   Clear
3:15 AM 68.0 °F - 64.4 °F 88% 30.05 in 10.0 mi SE 13.8 mph - N/A   Clear
3:35 AM 68.0 °F - 64.4 °F 88% 30.05 in 10.0 mi SE 13.8 mph - N/A   Clear
3:55 AM 68.0 °F - 64.4 °F 88% 30.05 in 10.0 mi SE 12.7 mph 20.7 mph N/A   Clear
4:15 AM 68.0 °F - 64.4 °F 88% 30.04 in 10.0 mi SE 11.5 mph 17.3 mph N/A   Clear
4:35 AM 66.2 °F - 64.4 °F 94% 30.04 in 10.0 mi SE 12.7 mph - N/A   Clear
4:50 AM 66.2 °F - 64.4 °F 94% 30.03 in 10.0 mi SE 13.8 mph - N/A   Clear
5:15 AM 68.0 °F - 64.4 °F 88% 30.03 in 10.0 mi SE 11.5 mph 18.4 mph N/A   Clear
5:35 AM 66.2 °F - 64.4 °F 94% 30.03 in 10.0 mi SE 13.8 mph - N/A   Clear
5:55 AM 66.2 °F - 64.4 °F 94% 30.03 in 10.0 mi SE 15.0 mph 19.6 mph N/A   Clear
6:15 AM 66.2 °F - 64.4 °F 94% 30.02 in 10.0 mi SE 16.1 mph 20.7 mph N/A   Clear
6:35 AM 66.2 °F - 64.4 °F 94% 30.02 in 10.0 mi SE 16.1 mph 20.7 mph N/A   Clear
6:55 AM 66.2 °F - 64.4 °F 94% 30.02 in 10.0 mi SE 13.8 mph 20.7 mph N/A   Clear
7:15 AM 66.2 °F - 64.4 °F 94% 30.02 in 10.0 mi SE 16.1 mph 23.0 mph N/A   Clear
7:35 AM 66.2 °F - 64.4 °F 94% 30.02 in 10.0 mi SE 20.7 mph 25.3 mph N/A   Clear
7:55 AM 68.0 °F - 64.4 °F 88% 30.02 in 10.0 mi SE 18.4 mph 26.5 mph N/A   Clear
8:15 AM 68.0 °F - 64.4 °F 88% 30.03 in 10.0 mi SE 18.4 mph 25.3 mph N/A   Clear
8:35 AM 69.8 °F - 64.4 °F 83% 30.03 in 10.0 mi SE 13.8 mph - N/A   Clear
8:55 AM 71.6 °F - 64.4 °F 78% 30.03 in 10.0 mi SE 13.8 mph - N/A   Clear
9:15 AM 71.6 °F - 64.4 °F 78% 30.04 in 10.0 mi SE 16.1 mph 20.7 mph N/A   Clear
9:35 AM 73.4 °F - 64.4 °F 73% 30.04 in 10.0 mi SE 13.8 mph - N/A   Clear
9:55 AM 73.4 °F - 66.2 °F 78% 30.06 in 10.0 mi SSE 12.7 mph 17.3 mph N/A   Clear
10:15 AM 75.2 °F - 66.2 °F 73% 30.07 in 10.0 mi SE 10.4 mph - N/A   Clear
10:35 AM 75.2 °F - 66.2 °F 73% 30.07 in 10.0 mi SSE 11.5 mph - N/A   Scattered Clouds
10:55 AM 75.2 °F - 66.2 °F 73% 30.07 in 10.0 mi SE 12.7 mph - N/A   Mostly Cloudy
11:15 AM 77.0 °F - 68.0 °F 74% 30.05 in 10.0 mi SSE 12.7 mph 21.9 mph N/A   Mostly Cloudy
11:35 AM 77.0 °F - 68.0 °F 74% 30.04 in 10.0 mi SSE 15.0 mph 19.6 mph N/A   Scattered Clouds
11:55 AM 77.0 °F - 66.2 °F 69% 30.03 in 10.0 mi SSE 19.6 mph 28.8 mph N/A   Partly Cloudy
12:15 PM 77.0 °F - 66.2 °F 69% 30.02 in 10.0 mi SSE 19.6 mph 27.6 mph N/A   Partly Cloudy
12:35 PM 77.0 °F - 68.0 °F 74% 30.02 in 10.0 mi SE 19.6 mph 24.2 mph N/A   Clear
12:55 PM 77.0 °F - 68.0 °F 74% 30.02 in 10.0 mi SE 10.4 mph 27.6 mph N/A   Clear
1:15 PM 78.8 °F - 68.0 °F 69% 30.04 in 10.0 mi SE 11.5 mph 17.3 mph N/A   Partly Cloudy
1:35 PM 78.8 °F - 68.0 °F 69% 30.04 in 10.0 mi SE 11.5 mph 16.1 mph N/A   Mostly Cloudy
1:55 PM 80.6 °F 83.9 °F 69.8 °F 70% 30.03 in 10.0 mi SE 13.8 mph - N/A   Overcast
2:15 PM 80.6 °F 83.9 °F 69.8 °F 70% 30.04 in 10.0 mi SSE 10.4 mph - N/A   Overcast
2:35 PM 80.6 °F 83.9 °F 69.8 °F 70% 30.04 in 10.0 mi SSE 10.4 mph - N/A   Overcast
2:55 PM 80.6 °F 83.2 °F 68.0 °F 65% 30.05 in 10.0 mi ESE 11.5 mph - N/A   Overcast
3:15 PM 80.6 °F 82.7 °F 66.2 °F 61% 30.05 in 10.0 mi ESE 13.8 mph - N/A   Overcast
3:35 PM 78.8 °F - 66.2 °F 65% 30.04 in 10.0 mi ESE 15.0 mph 20.7 mph N/A   Overcast
3:55 PM 80.6 °F 82.7 °F 66.2 °F 61% 30.04 in 10.0 mi ESE 13.8 mph - N/A   Overcast
4:15 PM 80.6 °F 82.7 °F 66.2 °F 61% 30.04 in 10.0 mi SE 15.0 mph 20.7 mph N/A   Mostly Cloudy
4:35 PM 82.4 °F 84.6 °F 66.2 °F 58% 30.03 in 10.0 mi ESE 18.4 mph 25.3 mph N/A   Scattered Clouds
4:55 PM 80.6 °F 82.7 °F 66.2 °F 61% 30.03 in 10.0 mi SE 18.4 mph 21.9 mph N/A   Clear
5:15 PM 82.4 °F 84.6 °F 66.2 °F 58% 30.02 in 10.0 mi SE 16.1 mph 25.3 mph N/A   Clear
5:35 PM 82.4 °F 85.4 °F 68.0 °F 62% 30.02 in 10.0 mi SE 16.1 mph 20.7 mph N/A   Clear
5:55 PM 80.6 °F 83.2 °F 68.0 °F 65% 30.02 in 10.0 mi ESE 15.0 mph - N/A   Clear
6:15 PM 80.6 °F 83.2 °F 68.0 °F 65% 30.03 in 10.0 mi ESE 13.8 mph 17.3 mph N/A   Clear
6:35 PM 80.6 °F 83.2 °F 68.0 °F 65% 30.03 in 10.0 mi ESE 17.3 mph 21.9 mph N/A   Clear
6:55 PM 78.8 °F - 68.0 °F 69% 30.02 in 10.0 mi ESE 16.1 mph 21.9 mph N/A   Clear
7:15 PM 77.0 °F - 68.0 °F 74% 30.03 in 10.0 mi ESE 13.8 mph 23.0 mph N/A   Clear
7:35 PM 77.0 °F - 66.2 °F 69% 30.03 in 10.0 mi ESE 12.7 mph 20.7 mph N/A   Clear
7:55 PM 75.2 °F - 66.2 °F 73% 30.03 in 10.0 mi ESE 16.1 mph 20.7 mph N/A   Clear
8:15 PM 75.2 °F - 66.2 °F 73% 30.03 in 10.0 mi ESE 11.5 mph - N/A   Clear
8:35 PM 75.2 °F - 66.2 °F 73% 30.03 in 10.0 mi ESE 12.7 mph - N/A   Clear
8:55 PM 73.4 °F - 64.4 °F 73% 30.03 in 10.0 mi ESE 16.1 mph - N/A   Clear
9:15 PM 73.4 °F - 64.4 °F 73% 30.04 in 10.0 mi ESE 12.7 mph - N/A   Clear
9:35 PM 71.6 °F - 64.4 °F 78% 30.05 in 10.0 mi ESE 12.7 mph - N/A   Clear
9:55 PM 71.6 °F - 66.2 °F 83% 30.05 in 10.0 mi ESE 10.4 mph - N/A   Clear
10:15 PM 71.6 °F - 66.2 °F 83% 30.06 in 10.0 mi East 9.2 mph - N/A   Clear
10:35 PM 69.8 °F - 66.2 °F 88% 30.06 in 10.0 mi East 9.2 mph - N/A   Clear
10:55 PM 68.0 °F - 64.4 °F 88% 30.06 in 10.0 mi East 9.2 mph - N/A   Clear
11:15 PM 68.0 °F - 64.4 °F 88% 30.07 in 10.0 mi East 6.9 mph - N/A   Clear
11:35 PM 68.0 °F - 64.4 °F 88% 30.07 in 10.0 mi ESE 9.2 mph - N/A   Scattered Clouds
11:55 PM 68.0 °F - 64.4 °F 88% 30.07 in 10.0 mi ESE 9.2 mph - N/A   Mostly Cloudy